SCP
0 0 0 0 0 1 1 1 1 0 0 0 0 0 0 0 0 0 0 0 0 0 0 0 0 0 0 0 0 0 0 0 1 1 0 0 1 1 1 1 1 1 1
0 0 0 0 0 1 1 1 0 0 0 0 0 0 0 0 0 0 0 0 0 0 0 0 0 0 0 0 0 0 0 0 0 0 0 0 0 1 1 1 1 1 1
0 0 0 0 0 0 0 0 0 0 0 0 0 0 0 0 0 0 0 0 0 0 0 0 0 0 0 0 0 0 0 0 0 0 0 0 0 0 1 1 1 1 1
0 0 0 0 0 0 0 0 0 0 0 0 0 0 0 0 0 0 0 0 0 0 0 0 0 0 0 0 0 0 0 0 0 0 0 0 0 0 0 0 1 1 1
0 0 0 0 0 0 0 0 0 0 0 0 0 0 0 0 0 0 0 0 0 0 0 0 0 0 0 0 0 0 0 0 0 0 0 0 0 0 0 0 0 0 0
0 0 0 0 0 0 0 0 0 0 0 0 0 0 0 0 0 0 0 0 0 0 0 0 0 0 0 0 0 0 0 0 0 0 0 0 0 0 0 0 0 0 0
0 0 0 0 0 0 0 0 0 0 0 0 0 0 0 0 0 0 0 0 0 0 0 0 0 0 0 0 0 0 0 0 0 0 0 0 0 0 0 0 0 0 0
0 0 0 0 0 0 0 0 0 0 0 0 0 0 0 0 0 0 0 0 0 0 0 0 0 0 0 0 0 0 0 0 0 0 0 0 0 0 0 0 0 0 0
0 0 0 0 0 0 0 0 0 0 0 0 0 0 0 0 0 0 0 0 0 0 0 0 0 0 0 0 0 0 0 0 0 0 0 0 0 0 0 0 0 0 0
0 0 0 0 0 0 0 0 0 0 0 0 0 0 0 0 0 0 0 0 0 0 0 0 0 0 0 0 0 0 0 0 0 0 0 0 0 0 0 0 0 0 0
0 0 0 0 0 0 0 0 0 0 0 0 0 0 0 0 0 0 0 0 0 0 0 0 0 0 0 0 0 0 0 0 0 0 0 0 0 0 0 0 0 0 0
0 0 0 0 0 0 0 0 0 0 0 0 0 0 0 0 0 0 0 0 0 0 0 0 0 0 0 0 0 0 0 0 0 0 0 0 0 0 0 0 0 0 0
0 0 0 0 0 0 0 0 0 0 0 0 0 0 0 0 0 0 0 0 0 0 0 0 0 0 0 0 0 0 0 0 0 0 0 0 0 0 0 0 0 0 0
0 0 0 0 0 0 0 0 0 0 0 0 0 0 0 0 0 0 0 0 0 0 0 0 0 0 0 0 0 0 0 0 0 0 0 0 0 0 0 0 0 0 0
0 0 0 0 0 0 0 0 0 0 0 0 0 0 0 0 0 0 0 0 0 0 0 0 0 0 0 0 0 0 0 0 0 0 0 0 0 0 0 0 0 0 0
0 0 0 0 0 0 0 0 0 0 0 0 0 0 0 0 0 0 0 0 0 0 0 0 0 0 0 0 0 0 0 0 0 0 0 0 0 0 0 0 0 0 0
0 0 0 0 0 0 0 0 0 0 0 0 0 0 0 0 0 0 0 0 0 0 0 0 0 0 0 0 0 0 0 0 0 0 0 0 0 0 0 0 0 0 0
0 0 0 0 0 0 0 0 0 0 0 0 0 0 0 0 0 0 0 0 0 0 0 0 0 0 0 0 0 0 0 0 0 0 0 0 0 0 0 0 0 0 0
0 0 0 0 0 0 0 0 0 0 0 0 0 0 0 0 0 0 0 0 0 0 0 0 0 0 0 0 0 0 0 0 0 0 0 0 0 0 0 0 0 0 0
0 0 0 0 0 0 0 0 0 0 0 0 0 0 0 0 0 0 0 0 0 0 0 0 0 0 0 0 0 0 0 0 0 0 0 0 0 0 0 0 0 0 0
0 0 0 0 0 0 0 0 0 0 0 0 0 0 0 0 0 0 0 0 0 0 0 0 0 0 0 0 0 0 0 0 0 0 0 0 0 0 0 0 0 0 0
0 0 0 0 0 0 0 0 0 0 0 0 0 0 0 0 0 0 0 0 0 0 0 0 0 0 0 0 0 0 0 0 0 0 0 0 0 0 0 0 0 0 0
0 0 0 0 0 0 0 0 0 0 0 0 0 0 0 0 0 0 0 0 0 0 0 0 0 0 0 0 0 0 0 0 0 0 0 0 0 0 0 0 0 0 0
0 0 0 0 0 0 0 0 0 0 0 0 0 0 0 0 0 0 0 0 0 0 0 0 0 0 0 0 0 0 0 0 0 0 0 0 0 0 0 0 0 0 0
0 0 0 0 0 0 0 0 0 0 0 0 0 0 0 0 0 0 0 0 0 0 0 0 0 0 0 0 0 0 0 0 0 0 0 0 0 0 0 0 0 0 0
0 0 0 0 0 0 0 0 0 0 0 0 0 0 0 0 0 0 0 0 0 0 0 0 0 0 0 0 0 0 0 0 0 0 0 0 0 0 0 0 0 0 0
Wind_Speed
10 9 8 8 8 7 6 6 5 4 3 3 3 2 2 2 1 2 4 3 3 3 3 3 3 2 2 2 2 2 3 3 3 3 4 5 6 6 6 6 6 7 8
9 8 7 7 7 6 6 6 5 5 5 4 3 2 2 3 1 3 2 3 3 3 3 3 3 3 3 3 3 2 2 3 2 2 2 3 3 5 7 6 7 7 6
9 8 6 6 5 5 5 6 5 5 5 5 4 4 3 3 3 3 2 2 3 3 3 3 3 3 4 3 3 3 3 3 3 2 2 2 2 2 4 7 7 6 6
8 7 6 5 5 5 6 6 5 4 4 5 5 6 4 4 4 3 2 3 3 3 2 2 3 3 4 4 4 3 3 4 4 3 3 3 2 2 3 2 4 6 6
8 7 7 5 5 5 5 5 5 4 4 4 4 5 6 5 5 5 4 4 4 3 2 1 2 3 3 4 4 4 4 3 4 3 3 3 3 4 3 4 3 2 3
8 7 6 6 4 4 4 5 4 3 3 3 4 4 5 5 6 5 5 4 3 2 2 3 3 3 3 4 4 4 4 4 4 4 4 3 3 3 3 4 3 3 3
7 8 8 6 4 3 3 3 3 3 3 3 3 4 4 5 5 5 5 5 4 3 4 5 4 4 4 5 4 4 5 5 5 4 4 4 4 3 3 3 4 4 3
6 6 7 5 4 3 2 2 2 2 2 3 3 3 4 4 4 5 5 5 4 4 4 4 4 4 5 6 4 4 5 4 4 6 5 4 4 4 3 3 3 4 3
6 6 6 5 4 2 2 1 1 1 2 3 3 3 2 3 4 4 5 4 4 5 5 5 5 5 5 5 5 4 5 5 5 5 5 4 4 3 3 3 3 3 4
6 6 5 5 3 2 3 2 2 1 1 2 3 4 3 3 3 4 4 4 5 5 5 5 5 5 5 5 5 5 5 5 5 5 5 5 4 3 3 3 3 3 4
6 6 5 5 3 2 2 2 2 1 0 1 2 3 3 4 4 4 4 4 4 5 5 6 6 6 6 5 5 6 6 6 6 6 6 6 5 4 4 3 3 4 4
5 6 5 4 2 1 1 2 1 1 1 1 2 3 3 3 4 5 4 4 5 5 6 6 6 6 6 5 5 6 7 6 6 6 6 6 6 5 4 4 4 4 4
5 5 5 3 2 2 2 2 2 2 2 2 3 3 3 4 4 4 4 5 5 5 6 6 6 6 6 6 6 6 6 6 6 6 6 6 6 5 4 5 5 4 5
5 5 5 3 2 1 0 1 2 3 3 3 4 3 3 4 4 4 4 5 5 6 6 6 6 6 6 6 5 5 5 6 6 6 6 6 6 5 5 5 5 5 5
7 6 5 4 3 2 1 0 1 2 2 3 3 3 4 4 4 4 4 5 5 7 6 6 6 6 6 4 5 6 7 6 6 6 6 7 7 7 6 6 4 4 4
7 6 6 5 4 2 1 1 1 1 2 3 4 3 4 4 4 4 4 5 5 5 5 6 6 7 6 3 3 4 7 7 7 7 7 7 8 9 10 10 8 7 6
6 6 5 5 4 3 2 1 1 1 2 3 3 3 4 4 4 6 5 5 5 5 5 6 6 5 5 4 4 5 6 8 8 8 7 8 8 5 5 7 10 10 11
6 6 5 5 4 4 4 2 2 2 3 3 3 3 4 5 4 5 5 5 5 5 5 6 6 5 5 4 5 6 7 8 8 8 8 7 6 6 5 5 5 5 6
6 6 5 5 5 3 3 2 3 3 3 3 3 4 4 5 5 5 5 5 5 5 6 6 5 5 4 4 5 5 6 6 7 7 7 6 4 4 5 5 5 5 5
7 5 5 6 5 4 2 2 3 3 3 3 3 4 4 5 6 5 5 5 5 6 6 6 5 5 4 3 5 5 5 6 6 5 4 4 3 3 4 4 5 5 4
7 6 5 5 5 4 3 3 3 3 3 3 4 4 4 5 6 4 4 5 5 6 6 6 6 4 4 4 5 5 4 5 6 6 4 2 2 2 4 5 5 5 4
8 7 5 4 5 4 4 4 3 3 3 4 4 5 5 6 6 4 5 5 5 6 6 5 5 3 2 2 3 6 7 6 6 5 4 2 2 4 5 5 6 6 5
6 6 6 5 5 5 4 4 3 3 4 4 5 5 6 5 5 5 6 5 4 4 5 4 4 4 2 0 1 4 7 7 5 5 7 7 7 7 6 9 9 7 5
6 5 5 5 5 5 5 4 3 3 4 4 5 6 6 6 5 4 5 4 3 4 4 5 5 5 3 3 3 3 4 5 5 5 6 8 9 8 8 6 6 6 6
6 6 5 4 4 4 4 4 4 3 4 5 6 7 7 6 5 5 4 4 3 3 3 4 5 5 5 3 3 4 5 5 5 6 5 5 4 4 4 4 5 5 5
6 5 5 5 5 5 5 4 4 4 4 5 5 6 6 5 5 5 4 5 6 6 7 7 6 5 4 5 6 7 7 8 6 5 5 5 4 4 3 3 3 3 3
Wind_Direction
120 117 111 106 102 95 90 80 64 50 33 34 1 358 2 347 345 90 77 49 19 8 330 333 336 325 316 307 292 281 274 256 242 250 264 249 232 221 218 221 225 219 214
133 128 127 115 108 105 98 88 64 41 29 27 340 338 347 317 349 50 64 40 16 353 334 12 335 336 324 300 294 293 284 284 261 246 268 271 249 234 228 216 219 222 214
148 144 135 126 120 110 96 83 64 42 28 2 354 3 338 325 24 13 28 26 348 330 334 334 330 333 318 315 322 294 292 291 288 240 236 266 268 289 238 222 218 214 212
150 147 144 140 129 118 104 95 80 53 28 7 13 352 346 357 355 355 3 357 326 308 309 321 323 325 317 321 311 345 327 305 295 285 243 245 267 276 292 257 229 218 214
155 150 148 137 123 115 112 100 87 62 36 8 7 358 1 350 347 346 339 331 300 288 302 308 325 325 307 322 333 331 320 309 300 303 297 280 266 246 255 278 276 253 233
152 140 130 122 117 113 100 94 92 68 30 4 9 5 353 340 326 320 321 325 320 326 5 2 16 333 326 329 317 313 299 292 296 300 295 287 271 263 254 265 272 263 250
150 147 143 142 138 121 97 79 80 56 15 356 1 354 344 317 305 325 342 338 330 341 21 10 348 331 324 307 297 294 284 283 282 280 276 279 273 273 272 272 277 281 279
152 147 142 140 138 122 103 78 69 40 2 348 351 331 319 321 343 359 339 319 320 330 343 338 326 314 307 305 312 301 287 279 277 274 271 273 277 272 265 263 269 277 278
144 143 141 138 133 136 136 115 76 33 351 329 322 282 309 329 329 322 306 318 338 322 346 335 320 312 306 302 299 289 288 288 282 279 275 260 265 262 258 257 253 254 268
162 152 147 141 139 158 157 146 122 87 336 319 321 340 355 327 317 315 319 313 310 316 314 309 308 305 302 295 292 290 286 288 278 270 269 271 268 271 266 257 252 245 254
164 148 142 131 154 176 130 128 112 102 31 322 333 325 315 320 318 306 309 319 320 315 307 304 302 298 293 291 288 282 281 280 278 279 276 271 265 258 269 268 257 249 246
138 133 131 133 146 106 59 79 84 93 357 330 322 311 317 319 317 317 323 319 313 311 309 307 304 301 300 300 296 291 292 291 289 282 279 278 275 261 255 261 265 259 252
137 131 123 124 118 74 29 11 2 33 6 351 335 328 333 326 319 317 316 311 307 306 306 305 305 305 303 299 293 289 290 291 290 290 285 279 274 268 256 255 257 261 261
148 145 128 132 127 116 69 315 359 12 353 351 331 332 328 322 319 315 314 310 308 305 302 307 306 304 303 301 308 310 302 295 293 289 283 276 269 265 259 254 247 252 258
161 155 148 148 159 156 191 154 13 7 349 327 316 323 324 318 312 312 309 305 307 309 315 313 307 305 299 323 349 327 309 312 305 294 286 280 272 262 256 260 253 257 256
167 159 158 159 158 170 179 102 326 343 314 308 310 315 312 310 312 308 307 307 308 308 308 303 305 306 312 355 341 321 313 303 296 293 290 284 266 254 242 238 239 239 243
162 156 155 153 157 164 137 198 268 270 278 284 295 303 307 308 313 317 322 318 316 313 307 302 301 300 301 291 288 289 294 289 285 283 281 282 283 282 261 237 231 234 237
155 150 155 152 156 150 148 182 258 254 257 272 294 307 310 314 317 313 317 316 309 304 298 294 293 292 295 275 269 279 279 280 279 275 270 269 276 280 279 273 258 246 240
136 139 151 147 142 148 145 189 252 259 262 282 305 317 318 318 315 313 316 312 306 302 298 294 294 294 286 258 259 272 288 284 287 285 281 277 270 271 268 265 264 263 260
133 142 148 144 144 145 153 221 252 269 285 303 316 319 316 312 306 305 307 305 301 298 300 301 299 295 295 255 247 256 284 293 299 296 286 281 274 269 266 264 265 262 265
141 147 150 150 144 148 169 230 257 280 298 307 309 307 306 296 286 289 291 291 293 297 296 295 293 284 275 244 235 242 274 297 304 305 307 316 324 272 261 259 263 264 275
157 158 155 153 148 161 187 228 247 276 294 298 297 299 299 297 304 301 290 284 285 290 289 288 292 286 258 244 225 238 251 272 292 300 303 303 262 275 272 262 258 259 267
157 162 164 165 165 177 198 228 239 264 279 286 292 294 293 285 282 281 286 285 282 292 307 314 319 320 324 179 227 254 267 267 270 290 296 286 265 267 263 253 255 251 245
163 173 180 182 181 187 203 213 226 242 266 280 286 285 280 279 279 274 280 289 304 315 319 324 324 324 330 13 9 331 301 286 284 296 292 276 260 251 259 261 241 230 235
170 177 183 191 195 195 207 213 216 229 257 274 278 281 280 281 279 276 274 279 281 273 277 305 314 321 323 355 342 319 319 325 332 320 295 282 275 256 244 244 235 230 231
171 181 193 202 205 203 210 214 212 224 248 264 273 281 284 283 284 283 281 250 247 241 235 240 259 283 282 301 304 299 294 294 300 302 286 287 286 281 272 268 264 253 249